Location: Rockford
(42.2710°N, 89.0940°W)
Time: 20:26:56
(UTC-05:00)

Daily predictions for brighter satellites

Satellite Brightness Start Highest point End
(mag) Time Altitude Azimuth Time Altitude Azimuth Time Altitude Azimuth
Sich 1 3.6 20:08:19 10° N 20:12:18 36° ENE 20:16:15 10° SE
In-Cosmos 22 Rocket 4.2 20:07:18 10° N 20:12:46 64° ENE 20:18:05 10° SSE
Nadezhda 3 Rocket 4.4 20:07:30 10° N 20:13:30 44° ENE 20:19:32 10° SSE
Cosmos 1340 3.1 20:11:34 10° SSE 20:15:07 40° E 20:18:41 10° NNE
NOSS 7 (H) 4.3 20:12:09 10° SSW 20:15:43 66° ESE 20:19:00 10° NE
Cosmos 2251 Rocket 3.9 20:11:27 10° N 20:16:42 51° ENE 20:21:54 10° SE
Cosmos 2237 4.2 20:13:17 10° SSW 20:18:57 85° ESE 20:24:41 10° NNE
Cosmos 1939 Rocket 3.2 20:17:40 10° SE 20:21:21 44° ENE 20:25:05 10° N
Cosmos 2322 3.8 20:16:31 10° SSW 20:22:11 86° WNW 20:27:54 10° NNE
SJ-6B 3.0 20:18:10 10° S 20:22:14 78° WSW 20:26:14 10° NNW
Envisat 3.1 20:20:38 10° SSE 20:25:43 83° WSW 20:30:50 10° NNW
Cosmos 1825 4.2 20:25:13 10° NE 20:26:51 12° ENE 20:28:24 10° E
Cosmos 44 3.8 20:23:17 10° SW 20:27:41 60° NW 20:32:24 10° NNE
Meteor 2-3 Rocket 4.3 20:23:43 10° N 20:28:58 39° ENE 20:34:12 10° SE
Cosmos 1633 Rocket 3.4 20:26:58 10° N 20:31:09 44° ENE 20:35:18 10° SSE
Meteor 2-15 Rocket 4.5 20:29:27 10° N 20:35:35 65° E 20:41:39 10° SSE
Cosmos 2228 Rocket 4.2 20:32:19 10° SE 20:35:49 24° E 20:39:21 10° NE
Cosmos 1437 4.0 20:34:47 10° SSW 20:37:50 44° WNW 20:40:56 10° N
SL-24 R/B - RUBIN 2 3.5 20:34:16 10° NNW 20:38:40 80° ENE 20:42:35 13° SE
Thor Agena Rocket 3.6 20:39:39 10° NNE 20:44:54 86° WNW 20:50:10 10° SSW
Cosmos 2221 4.3 20:41:37 10° SW 20:45:31 35° WNW 20:49:27 10° N
Cosmos 44 Rocket 3.9 20:41:45 10° SW 20:46:27 61° NW 20:51:19 10° NNE
ARGOS 4.2 20:44:33 15° ESE 20:47:53 28° ENE 20:52:21 10° N
Cosmos 2154 Rocket 4.0 20:43:02 10° S 20:49:18 86° E 20:55:34 10° N
BREEZE-M DEB (TANK) 3.7 20:45:27 10° WNW 20:49:25 32° N 20:51:02 15° ENE
OE (NEXTSAT) 4.4 20:50:50 10° WSW 20:54:24 85° NNW 20:57:34 13° ENE
Meteor 2-2 Rocket 4.3 20:49:50 10° S 20:55:40 87° E 21:01:39 10° N
Resurs 01 Rocket 1.7 20:53:22 10° S 20:57:48 79° WSW 21:02:17 10° NNW
Cosmos 1980 4.1 20:53:15 10° S 20:58:29 39° ESE 21:03:43 10° NE
Meteor 1-27 4.2 20:53:00 10° S 20:58:42 67° E 21:04:20 10° NNE
Cosmos 2360 Rocket 4.0 20:53:40 10° WSW 20:58:45 34° WNW 21:03:51 10° N
BREEZE-M DEB (TANK) 4.2 20:53:10 10° W 21:01:50 41° NNW 21:04:50 10° NE
Cosmos 1328 Rocket 3.5 20:58:01 10° S 21:02:22 69° E 21:06:48 10° NNE
Cosmos 2333 Rocket 2.1 20:58:59 10° SSW 21:04:37 71° ESE 21:10:15 10° NNE
NOSS 2-1 (C) 4.0 21:03:38 10° SW 21:07:10 52° NW 21:11:08 10° NNE
NOSS 2-1 (D) 4.1 21:04:37 10° SW 21:08:09 50° NW 21:12:07 10° NNE
Spot 2 Rocket 3.5 21:03:43 10° SSE 21:08:48 84° WSW 21:13:56 10° NNW
Cosmos 2341 Rocket 4.0 21:03:12 10° S 21:09:34 84° E 21:15:56 10° N
COSMOS 2428 3.2 21:04:15 10° SW 21:09:55 64° WNW 21:15:38 10° NNE
Cosmos 1470 Rocket 3.5 21:07:56 10° N 21:12:18 65° E 21:14:51 24° SSE
ATLAS 2AS CENTAUR R/B 2.9 21:05:20 10° NW 21:13:20 79° NE 21:18:17 23° SE
Meteor 2-10 Rocket 4.5 21:11:14 24° SE 21:13:31 32° E 21:18:36 10° NNE
Cosmos 1455 2.3 21:09:53 10° SSW 21:13:41 76° W 21:17:33 10° N
Cosmos 1844 Rocket 3.5 21:11:58 10° NW 21:17:26 49° WSW 21:22:47 10° S
Cosmos 2218 Rocket 4.2 21:11:56 12° SSE 21:17:33 53° E 21:23:45 10° NNE
Cosmos 1844 4.1 21:12:12 10° NNW 21:17:49 63° WSW 21:22:30 15° S
CZ-4B DEB 4.4 21:16:41 35° SSE 21:18:02 75° ENE 21:21:33 10° N
Cosmos 1892 3.9 21:15:09 10° NNW 21:18:51 43° W 21:22:32 10° SSW
Aureole 2 3.9 21:17:38 27° S 21:19:08 72° ESE 21:22:04 10° NNE
Terra 3.9 21:21:55 12° ENE 21:22:28 12° ENE 21:24:09 10° NE
Cosmos 1408 2.5 21:20:45 10° N 21:24:23 66° E 21:25:16 46° SE
Cosmos 2237 Rocket 2.1 21:20:48 10° S 21:26:18 62° ESE 21:31:52 10° NNE
Cosmos 2219 Rocket 2.6 21:21:42 10° SW 21:27:20 66° WNW 21:32:58 10° NNE
Lacrosse 5 4.3 21:26:01 10° NNW 21:28:59 15° N 21:31:57 10° NE
ATLAS CENTAUR R/B 1.0 21:25:32 10° SSW 21:29:12 87° WNW 21:33:02 10° NNE
SPOT 5 3.9 21:30:51 26° ENE 21:31:20 26° ENE 21:35:05 10° NNE
Cosmos 2366 rocket 4.0 21:27:19 19° SSE 21:31:51 62° E 21:38:03 10° NNE
Cosmos 2278 Rocket 2.1 21:29:11 10° NNW 21:34:53 79° ENE 21:37:23 35° SSE
Genesis I 3.2 21:30:54 10° NW 21:35:00 85° WSW 21:35:57 51° SSE
MetOp-A 4.1 21:33:31 33° SSE 21:35:57 72° ENE 21:41:19 10° N
NOSS 0 Rocket 3.9 21:30:03 10° SSW 21:36:13 89° ESE 21:42:28 10° NNE
H-2A R/B 2.0 21:39:07 41° SE 21:40:40 60° ENE 21:45:36 10° N
Cosmos 1933 Rocket 3.7 21:36:44 10° NNW 21:41:07 73° W 21:42:57 34° S
SL-8 Rocket 4.0 21:35:49 10° S 21:42:07 84° W 21:48:27 10° N
OAO 2 Rocket 4.5 21:39:07 10° WSW 21:43:27 27° SSW 21:43:55 27° S
NOSS 3-4 (A) 4.3 21:36:45 10° NNW 21:43:28 47° NE 21:46:43 30° E
NOSS 3-4 (C) 4.3 21:36:51 10° NNW 21:43:33 47° NE 21:46:49 30° E
Cosmos 407 Rocket 3.8 21:42:16 10° N 21:47:12 45° ENE 21:48:01 41° E
Cosmos 1339 Rocket 4.3 21:43:26 10° N 21:49:33 75° E 21:52:00 38° SSE
ERS-1 Rocket 2.9 21:50:18 50° SE 21:51:30 70° ENE 21:56:30 10° N
Cosmos 1371 Rocket 3.9 21:50:10 27° S 21:53:05 75° ESE 21:58:27 10° NNE
Cosmos 1151 Rocket 3.9 21:50:12 13° SSW 21:53:46 48° W 21:57:56 10° N
USA 267 3.2 21:50:20 10° NE 21:56:44 55° SE 22:03:07 10° SSW
Cosmos 1825 3.1 21:59:04 10° NNW 22:02:41 44° W 22:03:17 40° WSW
Cosmos 1869 Rocket 3.8 21:58:47 10° N 22:02:44 56° NE 22:02:44 56° NE
SL-19 R/B 4.4 22:09:46 52° E 22:10:27 56° ENE 22:15:54 10° N
Cosmos 1869 4.2 22:10:12 39° WSW 22:11:10 48° W 22:15:05 10° N
Cosmos 2344 3.8 22:10:53 44° ESE 22:11:20 44° ESE 22:18:53 10° NE
Cosmos 2098 Rocket 3.6 22:11:35 35° SW 22:13:19 57° W 22:17:16 10° N
Cosmos 2056 Rocket 3.5 22:13:06 45° SSW 22:14:49 89° W 22:20:16 10° NNE
SL-16 R/B 2.1 22:15:04 63° ESE 22:15:04 63° ESE 22:20:34 10° NNE
Helios 1B rocket 3.7 22:12:02 10° NNE 22:14:23 31° NE 22:14:23 31° NE
Cosmos 405 4.3 22:16:22 10° NNW 22:18:46 39° NNW 22:18:46 39° NNW
SL-8 R/B 3.7 22:15:09 10° WSW 22:19:41 79° W 22:19:41 79° W
Helios 1A 3.4 22:26:20 61° NW 22:26:20 61° NW 22:30:01 10° NNW
ARGOS 4.1 22:26:04 30° SW 22:27:56 40° W 22:32:58 10° NNW
GEOS 3 Rocket 4.0 22:24:18 10° NNE 22:29:38 66° NW 22:34:50 10° SW
USA 234 4.1 22:27:52 29° ENE 22:30:34 42° NNE 22:36:38 10° NW
Cosmos 1943 Rocket 4.1 22:28:09 10° N 22:31:27 16° NE 22:32:07 15° NE
Cosmos 1624 Rocket 4.4 22:30:21 36° SW 22:32:17 59° WNW 22:37:26 10° NNE
Cosmos 1190 Rocket 4.2 22:31:19 10° NNW 22:36:34 64° WSW 22:36:40 64° WSW
CZ-2C R/B 4.1 22:39:38 31° NE 22:39:38 31° NE 22:42:49 10° N
Landsat 7 4.1 22:42:33 64° NNW 22:42:33 64° NNW 22:46:36 10° NNW
Cosmos 2297 3.7 22:39:16 10° NNW 22:44:54 73° WSW 22:44:54 73° WSW
Cosmos 1140 Rocket 3.7 22:41:59 10° NNW 22:46:26 64° N 22:46:26 64° N
Cosmos 1000 Rocket 4.3 22:42:43 10° N 22:48:57 87° W 22:49:13 82° SSW
Cosmos 1954 Rocket 4.2 22:45:15 10° NNW 22:49:44 66° NNW 22:49:44 66° NNW
Cosmos 1821 Rocket 3.9 22:53:04 84° SSW 22:53:19 89° W 22:59:41 10° N
Cosmos 2369 Rocket 3.4 22:50:33 10° N 22:55:14 31° NE 22:55:14 31° NE
Terra 2.6 23:00:47 49° NNW 23:00:47 49° NNW 23:04:18 10° NNW
ATLAS 2AS CENTAUR R/B 4.4 22:57:42 10° WNW 23:03:25 23° WSW 23:05:45 20° SW
SPOT 5 4.3 23:10:05 30° WNW 23:10:05 30° WNW 23:13:22 10° NW
Cosmos 2123 Rocket 4.0 23:03:02 10° N 23:08:49 72° NNE 23:08:49 72° NNE
Cosmos 2237 Rocket 4.4 23:06:31 10° W 23:10:50 22° NW 23:15:09 10° N
Lacrosse 5 3.4 23:09:05 10° NNW 23:13:24 28° NNE 23:13:24 28° NNE
Cosmos 2278 Rocket 4.4 23:15:18 10° WNW 23:18:12 14° W 23:19:15 14° WSW
CZ-2C R/B 3.8 23:13:44 10° NNE 23:16:47 34° NE 23:16:47 34° NE
H-2A R/B 4.2 23:19:44 16° WSW 23:20:27 16° W 23:23:32 10° NW
CZ-4C R/B 3.7 23:26:51 28° NE 23:26:51 28° NE 23:29:41 10° NE
ATLAS 5 CENTAUR R/B 3.3 23:26:00 10° NNW 23:31:12 41° NE 23:31:12 41° NE
NOSS 3-4 (A) 4.5 23:27:46 10° NW 23:34:10 43° WSW 23:34:10 43° WSW
NOSS 3-4 (C) 4.5 23:27:52 10° NW 23:34:16 44° WSW 23:34:16 44° WSW
USA 267 4.0 23:33:25 10° NE 23:39:41 50° NNW 23:45:56 10° WSW
Cosmos 1605 Rocket 4.3 23:44:27 63° NNW 23:44:27 63° NNW 23:49:52 10° N
BREEZE-M DEB (TANK) 4.2 23:23:27 10° WNW 23:44:23 72° SW 23:44:23 72° SW
